Weather Roundup
Issued by NWS Springfield, MO

Home | Current Version | Previous Version | Text Only | Print | Product List | Glossary On
Versions: 1 2 3 4 5 6 7 8 9 10 11 12 13 14 15 16 17 18 19 20 21 22 23 24 25 26 27 28 29 30 31 32 33 34 35 36 37 38 39 40 41 42 43 44 45 46 47 48 49 50
000
NZUS99 KSGF 040357
HRRSGF

HOURLY WEATHER
NATIONAL WEATHER SERVICE SPRINGFIELD MO
1000 PM CST SAT DEC 03 2016

......SGF CWA......

CITY           SKY/WX    TMP DP  RH WIND       PRES   REMARKS
SPRINGFIELD    LGT RAIN  39  36  89 E13       30.10F WCI  31
JOPLIN         CLOUDY    41  39  93 MISG      30.10S
ROLLA          CLOUDY    40  32  73 SE5       30.17F

......SURROUNDING SGF CWA......

CITY           SKY/WX    TMP DP  RH WIND       PRES   REMARKS
CHANUTE        LGT RAIN  43  40  89 E9        30.09F FOG
PARSONS        CLOUDY    43  41  93 VRB5      30.11R
COFFEYVILLE    CLOUDY    43  41  93 E7        30.10S
EMPORIA        LGT RAIN  40  39  97 CALM      30.08F
HARRISON AR    FOG       38  38 100 SE10      30.10F VSB 3/4 WCI  31

......KANSAS AND MISSOURI......

CITY           SKY/WX    TMP DP  RH WIND       PRES   REMARKS
KANSAS CTY INT LGT RAIN  42  34  73 SE6       30.10F
SEDALIA        CLOUDY    43  32  65 SE8       30.15F
ST JOSEPH      CLOUDY    40  36  86 CALM      30.12S
ST LOUIS       CLOUDY    42  32  67 E9        30.24S
WICHITA        LGT RAIN  41  40  96 E3        30.07S FOG
TOPEKA         LGT RAIN  41  38  89 CALM      30.11S
OLATHE         LGT RAIN  42  37  82 S10       30.11S

......TENNESSEE......

CITY           SKY/WX    TMP DP  RH WIND       PRES   REMARKS
MEMPHIS        NOT AVBL
NASHVILLE      LGT RAIN  40  36  86 NE7       30.25F

......ARKANSAS.......

CITY           SKY/WX    TMP DP  RH WIND       PRES   REMARKS
FAYETTEVILLE   RAIN      42  42 100 E5        30.07F FOG
FT SMITH       LGT RAIN  44  42  93 E10       30.08R FOG
LITTLE ROCK    LGT RAIN  42  42 100 E21G29    30.08F

......OKLAHOMA.......

CITY           SKY/WX    TMP DP  RH WIND       PRES   REMARKS
TULSA          DRIZZLE   45  45 100 E5        30.06F FOG
PONCA CITY     LGT RAIN  44  41  89 SE10      30.07S FOG
MCALESTER      CLOUDY    46  43  89 NE3       30.05R FOG
OKLAHOMA CITY  CLOUDY    44  43  96 E7        30.03F FOG

......IOWA............

CITY           SKY/WX    TMP DP  RH WIND       PRES   REMARKS
DES MOINES     LGT RAIN  37  34  87 E9        30.14F WCI  31
QUAD CITIES    CLOUDY    35  26  69 SE9       30.25F WCI  28

......ILLINOIS........

CITY           SKY/WX    TMP DP  RH WIND       PRES   REMARKS
QUINCY         NOT AVBL
CHICAGO        CLOUDY    31  26  82 S5        30.28F WCI  26




USA.gov is the U.S. government's official web portal to all federal, state and local government web resources and services.